GALAXY 30 (G-30)

Last updated on Wed Sep 09 2026 00:03:03 GMT+0000 (Coordinated Universal Time)

1 46114U 20056C 26251.50216516 .00000016 00000+0 00000+0 0 9996 2 46114 0.0193 130.3039 0002030 42.1628 230.8686 1.00271995 22122
UTC large
Height (km)
Speed (km/s)
/
Latitude / Longitude
Inclination (degrees)
Orbital Period (minutes)
Azimuth
Elevation
Range (km)
Doppler Factor

Next 0 passes for location: London (51.5072 / 0.1276)

No passes found over London.
GALAXY 30 (G-30)